Dewpoint
44 49 45 45 44 44 47 47 46 45 45 44 44 45 45 44 44 45 45 45 44 42 42 42 45 50 54 45 42 47 54 56 55 55 52 50 46 43 39 40 39 37 37 38 38 37 37
47 44 45 43 43 47 46 45 43 42 42 42 43 44 44 44 44 44 44 44 43 43 42 42 45 51 50 38 44 45 54 55 55 54 51 49 46 44 40 38 38 37 37 37 36 36 36
47 44 44 44 45 46 44 44 41 42 41 41 42 43 43 43 43 43 43 43 43 43 43 43 47 50 46 40 44 47 55 54 54 53 51 50 48 43 41 38 38 37 34 37 37 37 36
45 45 42 44 45 45 43 43 43 43 43 41 42 43 43 43 43 43 43 43 43 43 44 44 47 49 43 45 43 41 52 54 55 55 52 53 51 46 42 41 39 37 36 33 34 36 36
44 45 44 41 46 45 43 43 43 41 42 41 41 42 42 42 43 44 44 44 44 44 44 45 44 46 40 47 42 40 43 47 51 54 52 51 49 44 41 37 35 34 32 33 33 34 34
45 44 43 41 46 45 44 43 43 42 42 42 42 39 41 43 44 44 44 44 44 44 44 44 44 43 44 39 41 41 40 47 49 51 50 48 46 41 39 36 28 31 32 31 30 31 33
45 43 42 42 45 45 44 43 42 40 42 44 39 39 42 44 45 46 44 41 33 37 41 35 40 38 40 43 42 42 39 43 49 47 43 44 41 37 37 37 34 33 32 31 31 31 29
44 42 42 42 44 43 43 42 42 42 41 41 38 41 43 44 44 45 43 37 37 38 31 36 43 43 43 41 38 41 41 42 44 41 44 42 38 40 40 38 37 36 34 33 31 31 29
44 40 42 42 43 42 43 42 41 39 42 40 39 40 42 44 45 44 40 37 41 42 34 33 40 44 41 39 38 39 40 43 42 40 39 37 39 42 40 40 38 33 31 30 29 29 28
41 41 41 41 43 42 42 38 39 42 39 40 42 43 44 45 44 42 38 41 44 41 28 33 38 42 41 39 37 40 41 41 40 38 38 37 39 40 39 38 32 29 29 30 28 27 25
40 41 41 41 41 41 38 39 40 41 42 45 45 45 46 46 43 40 40 45 43 39 19 34 39 46 41 37 37 38 42 39 37 37 37 34 33 37 36 34 31 30 29 28 27 25 24
40 41 40 42 38 41 40 41 42 44 46 47 47 46 46 43 44 44 45 44 40 26 20 31 39 39 36 36 37 40 39 39 40 36 34 33 33 32 31 32 31 30 28 27 28 25 17
40 41 39 38 40 41 40 41 43 45 46 46 45 47 45 45 40 46 45 40 25 20 33 30 34 36 34 35 37 37 35 35 35 32 32 33 32 31 32 29 30 28 26 18 12 13 11
41 40 39 38 40 39 39 43 42 45 46 46 45 46 46 46 46 45 40 31 21 29 31 37 35 34 33 35 35 36 34 32 33 34 33 29 27 30 30 30 29 27 26 18 3 9 17
41 40 38 37 38 39 41 41 43 45 47 47 44 42 43 45 45 43 37 24 25 29 36 34 32 31 31 35 36 36 33 32 32 30 27 26 25 31 30 31 30 29 25 26 22 22 19
41 40 38 38 40 40 41 40 43 44 46 46 39 39 39 44 46 40 31 29 32 35 33 31 29 31 29 33 32 33 30 31 30 32 30 27 25 30 31 30 30 28 29 23 23 12 8
41 40 39 38 38 38 38 40 42 44 46 44 37 32 37 44 44 35 27 30 35 36 36 30 30 28 29 28 30 29 29 29 30 30 30 29 26 29 30 28 28 27 27 26 24 19 12
41 40 39 39 38 38 39 40 41 43 46 40 36 26 37 42 33 33 31 33 36 37 37 30 28 29 28 29 27 25 27 28 31 30 28 29 28 27 27 30 30 29 27 26 19 17 23
42 40 39 39 38 38 38 39 41 43 46 40 33 34 39 39 31 33 35 35 36 37 34 30 27 27 30 27 25 26 27 30 31 29 27 29 25 21 24 27 29 28 28 27 24 24 20
41 41 39 39 38 38 38 39 40 42 45 40 34 26 33 37 37 34 34 34 33 36 30 29 28 29 27 27 27 28 29 33 32 30 31 30 27 22 18 22 26 26 28 28 26 25 23
40 41 40 38 38 38 38 38 39 41 44 38 35 33 36 31 32 33 35 33 32 31 32 30 28 27 27 27 29 29 30 31 33 34 33 29 26 27 27 27 28 27 27 28 27 27 24
39 42 39 39 38 38 38 37 38 40 42 39 35 35 36 34 34 32 32 32 32 33 33 30 26 29 31 30 30 29 30 30 29 32 31 30 28 29 26 28 29 27 28 28 28 28 28
40 42 41 39 38 38 38 37 37 38 40 39 40 40 38 33 33 30 30 32 32 33 35 36 35 35 34 36 36 32 31 31 30 30 30 29 28 28 24 27 28 26 28 29 29 30 28
40 40 43 37 38 38 38 37 37 37 38 40 40 40 36 31 32 31 33 32 33 34 33 37 37 34 39 40 38 37 35 32 32 32 32 30 31 32 26 27 21 26 31 30 30 31 32
39 39 42 40 37 36 37 37 37 37 36 36 42 38 36 31 33 33 35 34 35 36 36 37 39 40 41 38 34 32 32 32 32 32 33 33 32 29 25 25 26 28 33 33 32 30 33
39 39 41 42 37 35 38 36 37 35 36 35 41 40 37 33 31 36 37 35 32 33 34 37 41 42 39 36 32 29 26 28 31 34 35 35 35 32 29 25 22 26 32 35 35 29 34
40 38 39 43 39 37 37 38 36 35 34 34 36 39 37 34 35 37 35 35 35 34 32 36 38 37 38 34 30 26 23 30 29 29 31 32 33 29 29 28 28 30 31 37 29 28 34
39 40 39 41 42 39 35 39 38 37 37 34 32 38 34 33 32 34 37 38 40 35 33 35 36 37 35 31 30 30 28 29 30 31 33 31 30 29 29 28 24 31 36 32 33 35 35
40 40 39 40 42 40 37 36 38 36 37 37 31 33 37 31 29 35 35 35 38 41 40 38 35 36 36 32 33 32 31 32 30 27 33 30 31 29 30 28 30 30 31 35 36 35 35
Wind_Speed
19 21 22 23 23 23 25 24 24 23 25 25 25 22 20 18 20 18 18 17 17 18 19 22 21 21 7 7 11 9 13 19 25 21 21 13 10 8 13 12 5 7 3 7 10 11 6
20 22 22 24 24 24 24 23 24 24 24 23 24 21 21 21 19 15 17 15 16 19 19 19 19 16 5 15 8 11 3 18 17 16 17 15 10 7 8 4 15 4 12 14 9 10 6
20 24 23 25 26 26 23 24 25 24 24 23 23 21 19 18 18 14 15 16 18 18 17 16 18 9 8 16 2 3 9 16 13 13 15 12 5 6 5 4 6 4 4 4 11 8 8
22 23 24 24 25 25 24 24 25 23 24 22 21 19 17 18 17 16 15 18 17 17 16 16 13 3 6 9 16 11 5 8 9 11 9 13 6 2 3 3 4 8 3 7 4 11 7
22 24 26 25 26 26 25 25 23 23 22 22 20 19 19 19 18 16 15 16 17 18 15 13 8 5 4 3 8 8 3 9 11 7 7 10 8 4 3 8 5 2 6 8 8 10 9
24 26 27 26 28 27 26 25 24 25 22 21 23 20 20 16 15 14 22 18 19 13 7 6 8 6 5 7 7 6 3 12 5 11 11 7 5 8 8 10 14 7 12 5 8 2 4
24 24 25 27 29 27 25 25 24 23 21 21 22 19 18 18 16 17 12 7 4 1 3 6 6 5 1 2 9 8 6 7 4 7 9 11 10 19 17 15 4 6 4 5 5 2 7
23 26 26 28 29 28 26 26 25 25 24 23 21 19 19 19 19 13 1 2 3 1 3 13 8 2 5 7 9 12 14 7 6 5 9 8 17 10 11 9 6 1 3 5 8 1 5
23 26 26 27 28 27 27 26 25 26 26 23 20 20 22 25 20 5 4 3 5 3 1 5 6 3 11 10 7 13 10 5 8 6 5 8 5 12 9 9 10 3 5 4 4 7 1
22 25 27 27 27 27 26 28 28 28 25 23 23 22 25 24 13 7 3 5 5 3 5 5 6 3 4 12 6 6 7 3 4 12 14 5 8 13 10 11 9 7 3 3 2 3 6
23 25 26 28 25 27 28 29 30 30 30 27 24 24 25 10 4 4 1 4 4 0 8 5 7 2 3 2 18 5 3 1 6 8 6 3 9 8 8 7 6 4 5 5 3 2 3
22 24 26 26 26 27 28 30 31 32 32 27 20 17 13 5 3 2 6 5 2 2 6 3 4 10 10 7 5 7 1 3 6 8 12 4 2 6 5 4 5 12 5 6 5 2 4
22 24 26 26 26 27 30 30 32 33 32 21 17 14 8 3 5 7 9 1 3 4 2 6 8 15 16 12 9 4 3 8 5 8 6 5 3 3 8 11 5 5 5 3 3 1 8
21 23 25 25 27 29 29 31 33 34 29 21 12 9 12 6 8 8 1 2 7 5 3 11 19 19 9 9 9 4 8 6 3 8 7 6 4 5 3 4 6 4 5 4 4 3 4
19 22 23 24 25 27 30 31 32 33 28 21 11 6 5 6 1 3 2 8 3 4 3 15 19 16 7 9 4 4 3 7 3 2 5 6 1 1 2 4 5 4 4 2 3 2 2
19 21 22 24 25 28 29 32 32 32 25 16 5 7 5 10 5 1 3 6 6 7 13 7 7 3 6 5 7 3 6 3 5 3 1 5 5 1 3 5 7 3 11 3 2 2 4
17 20 22 23 24 26 29 31 32 31 28 9 4 4 1 12 2 8 7 6 4 7 10 6 5 7 8 6 6 3 11 2 4 5 2 3 4 0 5 5 9 5 3 4 5 3 1
14 16 20 22 23 25 27 29 31 31 24 9 3 4 9 9 6 4 4 4 4 5 2 4 7 10 6 6 4 4 9 3 9 8 5 1 5 5 6 1 4 5 6 6 3 4 2
15 15 18 21 23 25 27 29 31 31 16 2 4 4 4 5 7 7 2 2 2 4 2 3 4 3 5 6 5 3 7 3 9 9 9 6 1 3 2 2 1 5 6 6 4 3 9
13 15 16 19 22 25 26 28 31 33 17 4 3 2 6 6 2 3 6 6 3 2 4 6 5 10 7 4 3 7 6 3 12 11 8 6 3 3 4 1 4 4 8 13 12 6 5
13 14 14 17 20 23 26 28 30 32 18 3 6 4 3 4 6 5 4 4 8 7 5 7 5 11 5 4 5 5 3 4 6 4 5 4 2 3 7 10 5 7 9 12 19 20 11
11 13 13 15 17 21 23 26 29 32 20 6 3 4 5 4 6 6 4 5 5 4 6 5 8 3 2 4 3 8 7 4 4 3 4 2 1 2 7 4 7 14 18 17 18 17 21
12 12 12 13 15 18 20 22 25 28 18 5 3 2 2 5 6 3 3 2 4 1 5 4 4 6 9 4 3 5 5 11 5 9 6 5 4 1 4 5 8 11 18 19 9 10 14
11 12 13 12 13 15 17 19 20 22 19 3 3 0 3 5 4 2 5 5 2 3 3 1 3 2 3 1 5 7 11 8 7 4 6 7 6 2 4 5 3 3 5 8 18 15 20
10 12 13 11 11 13 14 15 17 17 18 6 4 1 2 3 6 7 4 1 1 3 2 0 2 2 2 3 3 3 2 2 5 4 6 6 6 2 2 4 10 4 3 4 5 10 9
9 12 12 9 10 12 12 13 14 14 15 8 4 4 1 2 6 0 5 4 3 2 1 1 1 2 2 3 3 4 6 4 5 3 3 7 6 4 4 3 3 2 2 2 5 4 3
9 11 11 11 10 10 12 11 14 12 11 5 2 9 3 4 4 2 6 4 1 3 2 1 2 1 2 3 4 5 4 3 6 7 6 5 5 11 10 6 8 10 5 6 1 2 5
9 9 10 13 10 9 11 10 11 11 9 3 4 3 3 5 12 7 4 3 4 1 5 4 3 2 2 6 5 5 4 5 3 3 7 11 9 6 7 5 10 6 5 2 4 6 4
8 8 10 14 16 8 10 10 9 10 8 2 2 2 1 5 9 5 15 18 9 6 3 3 2 3 7 4 4 3 3 5 3 4 3 7 9 6 12 8 4 3 7 7 3 7 4
Wind_Direction
338 335 343 339 334 326 332 330 332 331 326 323 322 320 310 307 302 309 301 302 297 292 291 293 299 307 194 192 237 277 303 188 196 184 192 184 168 152 184 193 159 213 200 211 234 257 261
332 340 341 334 331 338 334 336 332 332 326 325 324 319 315 312 314 312 300 297 291 291 292 290 296 311 232 212 237 249 256 166 182 161 169 172 186 167 168 194 197 189 214 253 267 261 245
344 339 338 337 332 337 335 331 333 333 333 332 329 328 320 312 315 313 305 299 295 294 293 289 290 310 202 216 130 303 183 188 161 165 163 176 161 178 162 153 204 219 200 215 239 241 238
344 333 334 336 337 336 333 335 331 336 330 331 328 334 328 323 320 316 308 297 293 289 292 288 293 329 237 256 268 309 153 155 162 171 160 175 162 169 191 141 101 152 139 210 246 210 235
340 336 337 335 336 335 332 332 335 330 335 329 329 326 322 318 312 312 311 300 293 285 285 283 296 250 214 221 213 229 196 156 172 167 165 154 158 187 155 154 129 184 188 210 270 238 238
338 340 340 334 337 336 336 338 336 337 333 327 326 328 324 324 326 321 321 306 286 283 270 250 255 247 189 207 167 159 170 131 141 155 141 138 151 170 165 187 192 164 205 220 219 175 190
341 337 341 336 340 339 339 338 332 333 333 325 328 326 325 321 323 313 315 328 18 94 217 197 215 215 206 222 127 175 140 114 113 133 158 184 184 196 189 197 189 175 169 203 233 266 322
338 344 344 335 342 344 342 341 339 329 336 331 332 324 318 315 320 321 321 227 214 79 291 255 304 168 275 181 153 158 140 160 165 163 129 149 211 182 180 166 186 90 263 267 289 249 324
348 342 341 341 344 346 349 341 335 331 334 335 329 319 314 313 313 312 225 225 218 143 168 187 303 209 177 141 129 162 147 118 158 137 113 136 143 147 172 187 207 214 208 230 260 324 87
343 349 345 345 346 351 349 344 337 336 335 329 319 313 310 310 291 136 236 265 184 206 124 189 193 201 141 130 74 122 158 144 141 141 113 83 138 139 163 193 179 172 207 169 89 3 282
348 343 344 346 354 354 349 341 340 337 330 322 316 316 319 325 107 131 188 163 120 12 131 131 137 304 123 67 132 156 92 157 132 116 120 123 151 157 178 190 150 167 136 110 94 77 332
346 345 348 354 355 352 347 346 340 340 338 337 342 345 354 48 86 85 135 93 23 15 81 109 142 144 97 96 67 111 277 96 69 74 71 103 116 149 171 100 164 142 91 51 58 41 279
344 346 351 355 352 356 352 348 347 349 356 10 37 41 52 67 112 143 132 62 47 52 233 119 135 126 117 122 115 125 136 102 130 136 119 42 26 56 119 94 74 115 108 273 277 232 233
346 349 355 355 359 356 352 350 353 355 357 9 26 44 50 72 105 124 4 25 53 340 47 119 115 103 98 107 116 111 123 110 54 94 100 148 172 178 159 153 178 158 168 198 251 256 300
349 353 357 359 360 357 355 357 355 355 353 353 338 345 13 7 259 190 30 40 2 350 37 119 88 89 67 55 86 103 50 140 142 105 142 147 108 71 110 137 146 167 184 137 114 85 309
349 355 358 358 4 3 356 357 358 356 353 354 0 340 336 331 336 56 62 42 42 138 97 61 88 115 120 119 132 119 159 191 135 140 133 173 120 80 121 103 52 167 150 130 70 241 265
349 356 357 1 4 2 357 356 359 358 352 356 2 355 268 337 322 57 58 39 32 342 14 62 118 105 112 118 128 137 172 52 180 166 46 112 101 205 136 206 177 138 174 77 118 152 218
347 3 357 360 5 5 1 359 360 0 358 25 7 16 334 350 49 42 34 330 322 327 346 77 85 114 126 121 137 125 182 201 191 146 166 119 117 175 194 40 193 166 177 160 173 193 131
344 2 360 1 2 6 4 1 360 0 8 4 3 305 339 10 51 19 360 345 300 334 1 136 104 116 123 129 140 150 191 231 184 171 179 167 92 132 72 60 349 201 198 176 132 114 206
340 352 1 2 0 6 5 4 1 359 1 89 14 2 354 45 5 13 2 10 8 298 43 72 106 126 109 132 109 179 162 13 175 183 190 130 139 183 204 175 146 200 198 201 191 194 220
333 345 359 1 3 5 4 4 3 360 358 82 37 35 9 360 4 344 340 358 34 42 29 52 97 141 133 134 128 141 119 108 98 158 145 148 183 203 256 252 219 236 235 214 211 219 232
326 340 349 0 5 4 4 5 5 2 353 78 63 8 337 299 306 329 6 25 45 0 22 52 141 201 336 120 182 170 142 141 171 112 130 151 159 19 299 311 234 252 250 237 234 238 249
322 335 339 355 4 3 4 5 10 10 15 58 26 18 320 308 338 357 354 358 28 21 44 56 151 121 96 70 54 135 155 168 189 167 149 158 160 104 287 337 318 283 244 214 205 216 222
324 320 335 350 358 2 358 2 7 17 21 349 12 7 13 291 328 329 335 322 8 7 161 25 87 121 153 121 107 70 72 128 142 143 153 152 137 140 286 338 251 266 161 193 209 235 216
318 317 333 341 356 355 351 355 1 11 21 7 336 26 97 259 310 296 325 210 99 34 46 55 12 134 144 108 96 127 93 120 201 192 172 151 138 187 258 265 288 277 179 146 188 289 234
316 313 319 333 345 343 342 347 350 358 15 24 359 346 334 259 238 14 311 271 212 218 334 305 19 351 87 112 132 193 195 182 188 152 145 130 121 189 200 266 269 292 112 144 125 315 250
302 311 315 337 332 338 332 338 337 344 5 41 343 358 302 270 266 198 217 270 212 164 186 244 208 180 33 148 174 199 221 179 182 184 169 171 200 223 244 254 282 252 253 153 244 280 332
300 308 315 325 318 331 328 320 327 332 343 57 298 15 33 286 281 250 253 260 325 216 184 173 123 210 137 190 193 194 193 206 197 194 178 177 185 197 198 236 254 179 134 208 281 306 315
302 325 326 328 328 305 318 319 310 315 317 121 284 286 180 231 261 292 269 262 240 241 328 254 210 178 190 156 203 151 173 172 172 228 204 204 193 192 198 218 241 183 280 273 272 290 311